User: anonymous
Location: Unspecified
(0.0000°N, 0.0000°E)
Time: 06:05:03
(UTC+02:00)
Language:

Cosmos 1092 Rocket - Orbit

View from above orbital plane
View from above orbital plane
View from above satellite
View from above satellite

Ground track
Ground track

The orbit data is extracted from the following two-line orbital elements,

1 11327U 79030B   14261.15638083  .00000082  00000-0  67391-4 0  8349
2 11327 082.9505 320.6163 0029138 107.7576 307.3850 13.76941820781106
Epoch (UTC): 18 September 2014 03:45:11
Eccentricity: 0.0029138
inclination: 82.9505°
perigee height: 953 km
apogee height: 996 km
right ascension of ascending node: 320.6163°
argument of perigee: 107.7576°
revolutions per day: 13.76941820
mean anomaly at epoch: 307.3850°
orbit number at epoch: 78110

The dashed part of the orbit path shows where the satellite is in the earth's shadow,  

DLR